824  
NZUS93 KARX 210410  
HRRWXR  
 
CURRENT HOURLY OBSERVATIONS ACROSS  
MUCH OF THE UPPER MISSISSIPPI VALLEY  
NATIONAL WEATHER SERVICE LA CROSSE WI  
1100 PM CDT SUN APR 20 2014  
 
   
..SOUTHEAST MINNESOTA
 
 
 
CITY SKY/WX TMP DP RH WIND PRES REMARKS  
ROCHESTER CLOUDY 57 54 89 SE7 29.97F  
ROCHESTER/MAYO MOCLDY 59 55 88 E6 29.96F  
WINONA N/A N/A N/A N/A MISG N/A  
AUSTIN RAIN 57 55 94 E7 29.95F  
ALBERT LEA CLOUDY 61 55 82 E9 29.94F  
DODGE CENTER CLOUDY 61 57 88 SE6 29.96F  
PRESTON CLOUDY 58 55 91 CALM 29.97F  
OWATONNA CLOUDY 61 55 82 E10 29.94F  
FARIBAULT CLOUDY 64 54 68 E7 29.95S  

 
   
..ELSEWHERE IN MINNESOTA
 
 
 
CITY SKY/WX TMP DP RH WIND PRES REMARKS  
MINNEAPOLIS MOCLDY 62 54 74 E7 29.94S  
INTNL FALLS MOCLDY 40 32 73 E8 29.89F WCI 34  
DULUTH CLEAR 49 28 44 SE6 29.96F  
RED WING CLOUDY 55 52 88 CALM 29.95S  
REDWOOD FALLS MOCLDY 64 52 64 SE8 29.91R  
MANKATO CLOUDY 63 54 72 E8 29.93S  
WORTHINGTON CLOUDY 64 46 52 SE10 29.94R  
FAIRMONT CLOUDY 63 54 72 E7 29.94F  

 
   
..SOUTHWEST WISCONSIN
 
 
 
CITY SKY/WX TMP DP RH WIND PRES REMARKS  
LA CROSSE CLOUDY 54 53 97 CALM 29.97S FOG  
PRAIRIE DU CHI CLOUDY 58 55 88 W9 29.99R  
BOSCOBEL CLOUDY 58 55 90 NW5 29.98R  
LONE ROCK CLOUDY 57 55 93 CALM 29.97F  
PLATTEVILLE MOCLDY 64 46 52 S6 29.99S  
FORT MC COY CLOUDY 53 52 96 CALM 29.99S  
CAMP DOUGLAS FOG 51 51 100 CALM 29.98S VSB 3/4  
VIROQUA CLOUDY 56 56 100 S5 30.00S  
WIS DELLS MOCLDY 56 51 84 CALM 29.97F  

 
   
..ELSEWHERE IN WISCONSIN
 
 
 
CITY SKY/WX TMP DP RH WIND PRES REMARKS  
MILWAUKEE CLOUDY 62 40 44 S8 30.00F  
MADISON CLOUDY 58 54 86 VRB3 29.99F  
GREEN BAY MOCLDY 51 50 96 N3 30.00F FOG  
EAU CLAIRE MOCLDY 56 53 90 CALM 29.96S  
BLACK RVR FLS DRIZZLE 53 53 100 CALM 29.98R  
MEDFORD FOG 50 49 99 E3 29.98F VSB 1/4  
WAUSAU CLOUDY 55 52 89 CALM 29.97F  
WIS RAPIDS LGT RAIN 54 52 93 E5 29.99F  
MARSHFIELD CLOUDY 54 52 93 E3 29.98F FOG  
RICE LAKE CLEAR 52 48 86 E3 29.98F  

 
   
..NORTHEAST IOWA
 
 
 
CITY SKY/WX TMP DP RH WIND PRES REMARKS  
WATERLOO LGT RAIN 64 53 67 MISG 29.98R  
DUBUQUE CLOUDY 63 47 55 SW9 29.98S  
DECORAH LGT RAIN 61 59 94 CALM 30.01S  
MASON CITY TSTM 63 58 83 SE7 29.98R  
CHARLES CITY DRIZZLE 59 57 94 SE10 29.98R  
OELWEIN CLOUDY N/A N/A N/A N9 30.01R  

 
   
..ELSEWHERE IN IOWA
 
 
 
CITY SKY/WX TMP DP RH WIND PRES REMARKS  
DES MOINES CLOUDY 70 53 54 SW7 29.97R  
IOWA CITY MOCLDY 63 49 60 S6 29.99S  
FORT DODGE CLOUDY 64 55 72 CALM 29.97R  
MARSHALLTOWN CLOUDY 67 50 54 S14 29.95R  
CEDAR RAPIDS MOCLDY 63 48 58 S10 29.97S  

 
   
..NORTHERN ILLINOIS
 
 
 
CITY SKY/WX TMP DP RH WIND PRES REMARKS  
CHICAGO-OHARE MOCLDY 62 39 42 S8 30.01F  
DUPAGE PTCLDY 60 42 51 S7 30.01F  
CHICAGO-MIDWAY MOCLDY 68 39 34 S12 30.03F  
MOLINE CLOUDY 68 46 45 S6 29.98S  
ROCKFORD CLOUDY 63 42 46 S8 30.01R  
STERLING CLOUDY 68 43 40 S6 30.00R  
PEORIA PTCLDY 67 42 40 S9 30.03F  

 
 
NOTE: "FAIR" INDICATES FEW OR NO CLOUDS BELOW 12,000 FEET WITH NO  
SIGNIFICANT WEATHER AND/OR OBSTRUCTIONS TO VISIBILITY. WIND  
SPEEDS ARE IN MILES-PER-HOUR.  
 
CLICK HERE TO GO TO PREVIOUS BULLETINS.

The Nexlab WI Page
The Nexlab IA Page
The Nexlab MN Page Main Text Page